SL-16 DEB, 22604

Orbit data source: Space-Track

SL-16 DEB, 22604 is space debris in LEO originally from a launch on Fri, 26 Mar 1993 UTC launched from the Tyuratam Missile And Space Complex (TTMTR). Debris objects in space refer to the collection of defunct objects orbiting the Earth. Examples of debris include non-operational satellites, rocket bodies, and fragments generated from explosions, collisions, or faulty payload assembly.

Loading next visibility...
Identifier
22604, 1993-016N
Orbit
LEO
Country
Flag of CISCIS
Related business
Manufacturer
Unknown
Mission
Spacecraft
Bus & Motor
Unknown
Mass
Unknown
Launch date (UTC)
1993-03-26 (33 years ago)
Launch vehicle
Unknown
Launch site
Tyuratam Missile And Space Complex (TTMTR)
Object type
Payload
Rocket body
Debris
Shape & HBR
Unknown shape, 0.2 m
Radar Cross Section
Medium (>0.1 m² and <1 m²)

Expand to show TLE details & history
Last TLE update: 11 hours ago

TLE from 11 hours ago
0 SL-16 DEB
1 22604U 93016N   25289.14053394  .00000009  00000-0  47084-4 0  9994
2 22604  70.9916 245.4736 0167524  65.5648  40.3383 13.76481602635449
Epoch: 2025-10-16T03:22Z
TLE epoch observation values (Epoch: 2025-10-16T03:22:22.132Z)
Latitude
64.70594°
Longitude
-56.50319°
Altitude
893.966 km
Speed
7.458 km/s
True Right ascension
01h 15m 58s
True Declination
64° 34' 31"
Sunlit
Object was in full shadow at epoch
Visualization orbit readout
Latitude
Unknown
Longitude
Unknown
Altitude
Unknown
Speed
Unknown
Apparent Right ascension
Unknown
Apparent Declination
Unknown
Sunlit
N/A
Visualization observer readout
Local Sidereal Time
08:58:14
Azimuth
Unknown
Elevation
Unknown
Doppler factor
Unknown
Orbital elements
Apogee altitude
1,097.527 km
Perigee altitude
851.184 km
Semi-major axis
7,352.492 km
Eccentricity
0.01675
Inclination
70.9916°
RAAN
245.4736°
Arg. of periapsis
65.5648°
True anomaly
41.60095°
Mean anomaly
40.3383°
Eccentric anomaly
40.9676°
Mean motion
3.44264 °/min
Orbital period
104.57 mins
BSTAR
0.000047084
Loading maneuver chart data...
Computing Atmospheric mass density...
Loading historical data...
Loading historical data...
Loading historical data...
Loading historical data...
Loading historical data...
Loading historical data...
Loading historical data...

Documentation

Showing up to 5 results
|